Location: Unspecified
(0.0000°N, 0.0000°E)
Time: 06:39:43
(UTC+00:00)

LES 2 - Pass Details

Date: 15 October 2025
Orbit: 2783 x 14792 km, 32.1° (Epoch: 30 October)

Event Time Altitude Azimuth Distance (km) Brightness Sun altitude
Exits shadow 02:36:08 17° 218° (SW) 6,001 ? -46.7°
Maximum altitude 02:49:25 28° 171° (S) 6,943 ? -43.5°
Drops below altitude 10° 03:36:57 10° 110° (ESE) 14,935 ? -31.8°
Sets 04:18:38 0° 93° (E) 19,284 ? -21.5°
